Regional Weather Roundup
Issued by NWS Jackson, KY

Home | Current Version | Previous Version | Text Only | Print | Product List | Glossary Off
Versions: 1 2 3 4 5 6 7 8 9 10 11 12 13 14 15 16 17 18 19 20 21 22 23 24 25 26

000
ASUS43 KJKL 162110
RWRJKL

EAST KENTUCKY HOURLY WEATHER ROUNDUP
NATIONAL WEATHER SERVICE JACKSON KY
400 PM EST FRI FEB 16 2018

NOTE: "FAIR" INDICATES FEW OR NO CLOUDS BELOW 12,000 FEET WITH
NO SIGNIFICANT WEATHER AND/OR OBSTRUCTIONS TO VISIBILITY.

* THESE REPORTS ARE NOT UNDER NWS QUALITY CONTROL AND MAY NOT
  REPORT WEATHER SUCH AS PRECIPITATION AND FOG.

KYZ079-080-083-085-087-088-110-112-115-119-120-162200
...EASTERN KENTUCKY...

CITY           SKY/WX    TMP DP  RH WIND       PRES   REMARKS
JACKSON        CLOUDY    44  40  85 NW9       30.13R
LONDON         CLOUDY    45  41  86 NW10G22   30.15R
SOMERSET*      DRIZZLE   43  43 100 N8        30.20R
WILLIAMSBURG*  CLOUDY    45  45 100 NW8       30.15R
MIDDLESBORO*   DRIZZLE   47  45  91 N6        30.12R
HARLAN APT*    CLOUDY    46  43  87 SW3       30.10R
PIKE CO APT*   DRIZZLE   44  44 100 NW9       30.10R
BIG SANDY APT* DRIZZLE   45  45  99 N7        30.12R
MOREHEAD APT*  CLOUDY    43  37  81 NW10      30.16R
ASHLAND*       CLOUDY    43  38  82 N10G24    30.14R
$$

KYZ035-036-041-042-044-050-067-078-099-162200
...CENTRAL KENTUCKY...

CITY           SKY/WX    TMP DP  RH WIND       PRES   REMARKS
MT STERLING*   CLOUDY    43  37  81 N12       30.18R
FLEMING/MASON* CLOUDY    42  35  79 NW8       30.18R
DANVILLE*      CLOUDY    41  37  87 NW10G16   30.20R
LEXINGTON      CLOUDY    42  36  79 NW13      30.19R
FRANKFORT      CLOUDY    41  34  76 NW12G21   30.20R
LOUISVILLE     CLOUDY    42  35  76 N10       30.24R
LEBANON*       MOCLDY    43  39  87 N15       30.20R FOG
GLASGOW*       CLOUDY   N/A N/A N/A NW9G16    30.21R HAZE
BOWLING GREEN  CLOUDY    44  39  82 N8        30.23R
$$

KYZ091>093-OHZ055-061-077-WVZ005-015-034-035-042-162200
...SOUTHERN OHIO/WEST VIRGINIA...

CITY           SKY/WX    TMP DP  RH WIND       PRES   REMARKS
COVINGTON      CLOUDY    40  31  70 NW14      30.19R WCI  32
COLUMBUS       CLOUDY    38  29  70 N15G21    30.15R WCI  29
DAYTON         CLOUDY    36  29  75 N13       30.19R WCI  27
WILMINGTON     PTSUNNY   38  30  73 NW15      30.16R WCI  29
HUNTINGTON     CLOUDY    44  39  82 NW6       30.12R HAZE
CHARLESTON     LGT RAIN  45  42  89 NW12G17   30.07R FOG
BECKLEY        LGT RAIN  42  39  89 NW10      30.02R
BLUEFIELD      LGT RAIN  45  42  89 NW9       30.00R
LOGAN CO APT*  LGT RAIN  43  43 100 NW6       30.07R
$$

VAZ002-007-008-TNZ017-027-036-066-071-162200
...SOUTHWEST VIRGINIA/EAST TENNESSEE...

CITY           SKY/WX    TMP DP  RH WIND       PRES   REMARKS
WISE*          LGT RAIN  45  45 100 NW12G18   30.07R
JONESVILLE*    LGT RAIN  48  46  93 N5        30.11R
ABINGDON*      RAIN      53  50  90 NW7       30.02R
BRISTOL        LGT RAIN  55  54  96 VRB5      30.04R FOG
MORRISTOWN*    CLOUDY    50  50 100 N7        30.09R FOG
SEVIERVILLE*   CLOUDY    52  50  93 NW7       30.10R FOG
KNOXVILLE      RAIN      50  49  96 NE9       30.10R VSB 1
LAFOLLETTE*    MOCLDY    48  45  87 VRB6G13   30.14R
OAK RIDGE      LGT RAIN  50  47  89 CALM      30.11R
CROSSVILLE     LGT RAIN  45  42  89 N7        30.13R FOG
NASHVILLE      CLOUDY    45  42  89 N12       30.23R FOG
$$

...KEY TO REMARKS...
VSB - VISIBILITY IN MILES
WCI - WIND CHILL INDEX
HX  - HEAT INDEX

$$




USA.gov is the U.S. government's official web portal to all federal, state and local government web resources and services.